Tracking 27188 objects as of 2-Apr-2023
HD Live streaming from Space Station
objects crossing your sky now

STARLINK-3189

Track STARLINK-3189 now!
10-day predictions
STARLINK-3189 is classified as:


NORAD ID: 51464
Int'l Code: 2022-010J
Perigee: 546.1 km
Apogee: 547.6 km
Inclination: 53.2 °
Period: 95.4 minutes
Semi major axis: 6917 km
RCS: Unknown
Launch date: February 3, 2022
Source: United States (US)
Launch site: AIR FORCE EASTERN TEST RANGE (AFETR)
Your satellite tracking list
Your tracking list is empty




NASA's NSSDC Master Catalog

Two Line Element Set (TLE):
1 51464U 22010J   23091.33848584  .00019740  00000-0  12546-2 0  9994
2 51464  53.2167  57.5781 0001053 104.9035 255.2074 15.08848557 65287
Source of the keplerian elements: AFSPC